Shannon, Ireland

12:08 PM IST on May 29, 2017 (GMT +0100)
Shannon

Weather History for EINN - June, 2012

Change the Weather History Date:

Thursday, June 7, 2012

  Actual Average Record
Temperature  
Mean Temperature 54 °F -  
Max Temperature 56 °F 65 °F 76 °F (2013)
Min Temperature 51 °F 51 °F 44 °F (1999)
Degree Days  
Heating Degree Days 12    
Growing Degree Days 4 (Base 50)    
Moisture  
Dew Point 53 °F    
Average Humidity 95    
Maximum Humidity 100    
Minimum Humidity 88    
Precipitation  
Precipitation 0.39 in 0.08 in - ()
Sea Level Pressure  
Sea Level Pressure 29.20 in    
Wind  
Wind Speed 10 mph ()    
Max Wind Speed 24 mph    
Max Gust Speed -    
Visibility 4.4 miles    
Events Rain    
Averages and records for this station are not official NWS values.
T = Trace of Precipitation, MM = Missing Value Source: Averaged Metar Reports

Daily Weather History Graph

Daily Weather History Graph

Search for Another Location

Airport or City:

Trip Planner

Search our weather history database for the weather conditions in past years. The results will help you decide how hot, cold, wet, or windy it might be!

Date:

Astronomy

Jun. 07, 2012 Rise Set
Actual Time 5:13 AM IST 9:56 PM IST
Civil Twilight 4:24 AM IST 10:45 PM IST
Nautical Twilight 3:04 AM IST 12:05 AM IST
Astronomical Twilight Sun does not set Sun does not set
Moon No Moon Rise 8:45 AM IST (6/7)
Length of Visible Light 18h 21m
Length of Day
16h 42m
Waning Gibbous, 88% of the Moon is Illuminated
Jun 7
Waning Gibbous
Jun 11
Last Quarter
Jun 19
New
Jun 27
First Quarter
Jul 3
Full

Hourly Weather History & Observations

Time (IST) Temp. Dew Point Humidity Pressure Visibility Wind Dir Wind Speed Gust Speed Precip Events Conditions
12:00 AM 55.4 °F 51.8 °F 88% 29.42 in 6.2 mi NNE 4.6 mph - N/A   Mostly Cloudy
12:30 AM 55.4 °F 53.6 °F 94% 29.39 in 6.2 mi NE 5.8 mph - N/A Rain Light Rain
1:00 AM 55.4 °F 53.6 °F 94% 29.39 in 6.2 mi NNE 4.6 mph - N/A   Mostly Cloudy
1:30 AM 55.4 °F 53.6 °F 94% 29.39 in 6.2 mi East 6.9 mph - N/A   Mostly Cloudy
2:00 AM 55.4 °F 53.6 °F 94% 29.36 in 6.2 mi East 5.8 mph - N/A   Mostly Cloudy
2:30 AM 55.4 °F 53.6 °F 94% 29.36 in 6.2 mi East 5.8 mph - N/A   Mostly Cloudy
3:00 AM 55.4 °F 53.6 °F 94% 29.36 in 6.2 mi East 6.9 mph - N/A   Mostly Cloudy
3:30 AM 55.4 °F 53.6 °F 94% 29.33 in 6.2 mi East 5.8 mph - N/A Rain Light Rain
4:00 AM 53.6 °F 53.6 °F 100% 29.33 in 6.2 mi East 6.9 mph - N/A Rain Light Rain
4:30 AM 53.6 °F 53.6 °F 100% 29.33 in 6.2 mi East 5.8 mph - N/A Rain Light Rain
5:00 AM 53.6 °F 53.6 °F 100% 29.30 in 6.2 mi ENE 5.8 mph - N/A Rain Light Rain
5:30 AM 53.6 °F 51.8 °F 94% 29.30 in 6.2 mi NNE 5.8 mph - N/A Rain Light Rain
6:00 AM 53.6 °F 51.8 °F 94% 29.27 in 5.0 mi NE 5.8 mph - N/A Rain Light Rain
6:30 AM 53.6 °F 51.8 °F 94% 29.27 in 5.0 mi NNE 6.9 mph - N/A Rain Rain
7:00 AM 53 °F 51 °F 92% 29.27 in 5 mi North 8.9 mph - - Rain Rain
7:00 AM 53.6 °F 51.8 °F 94% 29.27 in 5.0 mi North 8.1 mph - N/A Rain Rain
7:30 AM 53.6 °F 51.8 °F 94% 29.24 in 4.3 mi North 9.2 mph - N/A Rain Rain
8:00 AM 53.6 °F 51.8 °F 94% 29.24 in 3.7 mi North 13.8 mph - N/A Rain Rain
8:30 AM 51.8 °F 50.0 °F 94% 29.21 in 5.0 mi North 12.7 mph - N/A Rain Rain
9:00 AM 51.8 °F 50.0 °F 94% 29.21 in 3.7 mi North 15.0 mph - N/A Rain Light Rain
9:30 AM 51.8 °F 50.0 °F 94% 29.18 in 3.1 mi North 17.3 mph - N/A Rain Light Rain
10:00 AM 51.8 °F 51.8 °F 100% 29.18 in 3.1 mi North 17.3 mph - N/A Rain Rain
10:30 AM 51.8 °F 51.8 °F 100% 29.15 in 3.7 mi North 16.1 mph - N/A Rain Rain
11:30 AM 53.6 °F 51.8 °F 94% 29.12 in 4.3 mi North 16.1 mph - N/A Rain Rain
12:00 PM 53.6 °F 51.8 °F 94% 29.12 in 5.0 mi North 16.1 mph - N/A Rain Light Rain
12:30 PM 55.4 °F 51.8 °F 88% 29.12 in 3.7 mi North 17.3 mph - N/A Rain Light Rain
1:00 PM 55 °F 53 °F 89% 29.12 in 6 mi NNE 15.7 mph - - Rain Light Rain
1:00 PM 55.4 °F 53.6 °F 94% 29.09 in 5.6 mi NNE 16.1 mph - N/A Rain Light Rain
1:30 PM 55.4 °F 53.6 °F 94% 29.09 in 5.0 mi North 12.7 mph - N/A Rain Light Rain
2:00 PM 55.4 °F 53.6 °F 94% 29.09 in 6.2 mi North 11.5 mph - N/A Rain Light Rain
2:30 PM 55.4 °F 53.6 °F 94% 29.09 in 4.3 mi North 11.5 mph - N/A Rain Light Rain
3:00 PM 55.4 °F 55.4 °F 100% 29.09 in 5.6 mi NNW 12.7 mph - N/A Rain Light Rain
3:30 PM 55.4 °F 55.4 °F 100% 29.09 in 5.0 mi NNW 12.7 mph - N/A Rain Light Rain
4:00 PM 55.4 °F 55.4 °F 100% 29.09 in 2.5 mi NNW 13.8 mph - N/A Rain Light Rain
4:30 PM 55.4 °F 53.6 °F 94% 29.09 in 3.1 mi NNW 15.0 mph - N/A Rain Rain
5:00 PM 55.4 °F 53.6 °F 94% 29.09 in 2.5 mi NNW 17.3 mph - N/A Rain Rain
5:30 PM 55.4 °F 53.6 °F 94% 29.09 in 2.2 mi NW 13.8 mph - N/A Rain Rain
6:00 PM 53.6 °F 53.6 °F 100% 29.09 in 2.5 mi NW 15.0 mph - N/A Rain Rain
6:30 PM 53.6 °F 53.6 °F 100% 29.09 in 3.7 mi NW 19.6 mph - N/A Rain Rain
7:00 PM 54 °F 53 °F 95% 29.13 in 4 mi NW 20.1 mph - - Rain Rain
7:00 PM 53.6 °F 53.6 °F 100% 29.12 in 4.3 mi NW 19.6 mph - N/A Rain Rain
7:30 PM 53.6 °F 53.6 °F 100% 29.12 in 3.1 mi NW 18.4 mph - N/A Rain Rain
8:00 PM 53.6 °F 53.6 °F 100% 29.12 in 3.1 mi NW 23.0 mph - N/A Rain Rain
8:30 PM 53.6 °F 51.8 °F 94% 29.15 in 1.9 mi WNW 21.9 mph - N/A Rain Rain
9:00 PM 53.6 °F 51.8 °F 94% 29.15 in 1.9 mi WNW 20.7 mph - N/A Rain Rain
9:30 PM 53.6 °F 51.8 °F 94% 29.15 in 1.9 mi WNW 20.7 mph - N/A Rain Rain
10:00 PM 53.6 °F 51.8 °F 94% 29.18 in 1.2 mi NW 19.6 mph - N/A Rain Rain
10:30 PM 53.6 °F 51.8 °F 94% 29.18 in 1.9 mi WNW 23.0 mph - N/A Rain Rain
11:00 PM 51.8 °F 51.8 °F 100% 29.21 in 2.5 mi WNW 23.0 mph - N/A Rain Rain
11:30 PM 51.8 °F 50.0 °F 94% 29.21 in 3.7 mi WNW 24.2 mph - N/A Rain Light Rain